DW4669 Weather Reports


Display with metric or nautical units.
time (UTC)temp
F
wind
direction
speed
MPH
gust
MPH
rain 1hr
in
rain 24hr
in
rain mn
in
humidity
%
barometer
mb
20260502170514 57 306 3.0 9.0 0.00 0.07 0.07 52 1010.9
20260502164011 56 330 2.0 9.0 0.00 0.07 0.07 59 1011.0
20260502163511 56 318 2.0 9.0 0.00 0.07 0.07 57 1011.1
20260502163042 55 329 3.0 11.0 0.00 0.07 0.07 57 1011.2
20260502162511 55 304 5.0 11.0 0.00 0.07 0.07 52 1011.1
20260502162013 55 298 3.0 11.0 0.00 0.07 0.07 55 1011.3
20260502161533 56 325 3.0 11.0 0.00 0.07 0.07 52 1011.2
20260502161011 56 308 2.0 11.0 0.00 0.07 0.07 56 1011.4
20260502160508 55 0 1.0 11.0 0.00 0.07 0.07 53 1011.4
20260502152013 55 345 2.0 8.0 0.00 0.07 0.07 67 1011.7
20260502151540 54 0 0.0 8.0 0.00 0.07 0.07 69 1011.7
20260502151009 53 326 2.0 9.0 0.00 0.07 0.07 68 1011.7
20260502150509 52 318 2.0 9.0 0.00 0.07 0.07 71 1011.9
20260502130515 47 317 1.0 5.0 0.00 0.07 0.07 88 1012.2
20260502123513 47 0 0.0 6.0 0.00 0.07 0.07 91 1011.9
20260502123037 47 0 1.0 6.0 0.00 0.07 0.07 91 1011.7
20260502122516 47 297 0.0 5.0 0.00 0.07 0.07 91 1011.7
20260502122013 47 279 0.0 6.0 0.00 0.07 0.07 92 1011.7
20260502121530 47 319 1.0 7.0 0.00 0.07 0.07 92 1011.6
20260502121015 47 287 0.0 7.0 0.00 0.07 0.07 93 1011.7
20260502120517 47 0 0.0 3.0 0.00 0.07 0.07 93 1011.6
20260502115511 47 0 0.0 6.0 0.00 0.07 0.07 94 1011.4
20260502115011 47 330 1.0 6.0 0.00 0.07 0.07 95 1011.5
20260502114533 47 0 0.0 8.0 0.00 0.07 0.07 95 1011.6
20260502114013 46 289 1.0 8.0 0.00 0.07 0.07 95 1011.6
20260502113514 47 295 2.0 8.0 0.00 0.07 0.07 95 1011.6
20260502113030 47 302 0.0 6.0 0.00 0.07 0.07 96 1011.6
20260502112512 47 292 0.0 3.0 0.00 0.07 0.07 96 1011.6
20260502112012 46 290 0.0 3.0 0.00 0.07 0.07 96 1011.6
20260502111530 46 0 0.0 1.0 0.01 0.07 0.07 96 1011.6
20260502111014 45 0 0.0 1.0 0.01 0.07 0.07 96 1011.5
20260502110514 45 0 0.0 0.0 0.01 0.07 0.07 96 1011.4
20260502110032 45 0 0.0 0.0 0.01 0.07 0.07 95 1011.3
20260502105517 45 0 0.0 0.0 0.01 0.07 0.07 95 1011.2
20260502105012 44 0 0.0 0.0 0.01 0.07 0.07 95 1011.1
20260502104533 44 0 0.0 0.0 0.01 0.07 0.07 95 1011.1
20260502104014 44 0 0.0 0.0 0.01 0.07 0.07 95 1011.0
20260502103549 44 0 0.0 0.0 0.01 0.07 0.07 95 1010.9
20260502103032 44 0 0.0 0.0 0.01 0.07 0.07 94 1010.9
20260502102514 44 0 0.0 0.0 0.01 0.07 0.07 94 1010.9
20260502102012 44 0 0.0 0.0 0.00 0.06 0.06 94 1010.8
20260502101530 44 0 0.0 0.0 0.00 0.06 0.06 94 1010.7
20260502101012 45 0 0.0 0.0 0.00 0.06 0.06 94 1010.7
20260502100512 45 0 0.0 0.0 0.00 0.06 0.06 94 1010.8
20260502091530 46 0 0.0 0.0 0.01 0.06 0.06 94 1010.6
20260502091015 46 0 0.0 0.0 0.02 0.06 0.06 94 1010.6
20260502090514 46 0 0.0 0.0 0.02 0.06 0.06 95 1010.5
20260502071533 47 0 0.0 0.0 0.00 0.02 0.02 94 1011.1
20260502071013 47 0 0.0 0.0 0.00 0.02 0.02 93 1011.0
20260502070513 47 0 0.0 1.0 0.00 0.02 0.02 94 1011.1
20260502070034 47 0 0.0 1.0 0.00 0.02 0.02 93 1011.1
20260502065515 47 0 0.0 1.0 0.00 0.02 0.02 93 1010.8
20260502065011 47 0 0.0 0.0 0.00 0.02 0.02 93 1011.4
20260502064533 47 0 0.0 0.0 0.01 0.02 0.02 93 1011.4
20260502064021 47 0 0.0 0.0 0.01 0.02 0.02 93 1011.4
20260502063511 47 0 0.0 0.0 0.01 0.02 0.02 93 1011.4
20260502063028 47 0 0.0 0.0 0.01 0.02 0.02 93 1011.2
20260502062514 47 0 0.0 0.0 0.01 0.02 0.02 93 1011.4
20260502062011 47 0 0.0 0.0 0.01 0.02 0.02 93 1011.5
20260502061535 47 0 0.0 0.0 0.02 0.02 0.02 93 1011.5
20260502061011 47 0 0.0 0.0 0.02 0.02 0.02 93 1011.4
20260502060514 47 0 0.0 0.0 0.02 0.02 0.02 92 1011.5
20260502060030 47 0 0.0 0.0 0.02 0.02 0.02 92 1011.5
20260502055514 47 0 0.0 0.0 0.02 0.02 0.02 92 1011.2
20260502055012 47 0 0.0 0.0 0.02 0.02 0.02 92 1011.4
20260502054531 47 0 0.0 0.0 0.01 0.01 0.01 92 1011.4
20260502054014 47 0 0.0 0.0 0.01 0.01 0.01 92 1011.4
20260502053511 47 0 0.0 0.0 0.01 0.01 0.01 92 1011.4
20260502053031 47 0 0.0 0.0 0.01 0.01 0.01 91 1011.3
20260502052513 47 0 0.0 0.0 0.01 0.01 0.01 91 1011.1
20260502052011 47 0 0.0 0.0 0.01 0.01 0.01 91 1011.1
20260502051530 48 0 0.0 0.0 0.00 0.00 0.00 90 1011.1
20260502051011 48 0 0.0 0.0 0.00 0.00 0.00 90 1011.1
20260502050517 48 0 0.0 0.0 0.00 0.00 0.00 90 1011.2
20260502050028 48 0 0.0 0.0 0.00 0.00 0.00 90 1011.3
20260502045515 48 0 0.0 0.0 0.00 0.00 0.00 89 1011.4
20260502045014 48 0 0.0 0.0 0.00 0.00 0.00 88 1011.5
20260502044532 48 0 0.0 0.0 0.00 0.00 0.00 88 1011.4
20260502044017 48 0 0.0 0.0 0.00 0.00 0.00 88 1011.2
20260502043511 48 0 0.0 0.0 0.00 0.00 0.00 88 1011.0
20260502043032 48 0 0.0 0.0 0.00 0.00 0.00 87 1011.0
20260502042512 48 0 0.0 0.0 0.00 0.00 0.00 86 1010.9
20260502042018 48 0 0.0 1.0 0.00 0.00 0.00 87 1010.6
20260502041533 48 0 0.0 1.0 0.00 0.00 0.00 87 1010.8
20260502041013 48 0 0.0 1.0 0.00 0.00 0.00 87 1011.2
20260502040512 48 0 0.0 0.0 0.00 0.00 0.00 88 1011.2
20260502040037 48 0 0.0 0.0 0.00 0.00 0.00 88 1011.0
20260502035513 48 0 0.0 0.0 0.00 0.00 0.00 88 1011.1
20260502035016 48 0 0.0 0.0 0.00 0.00 0.00 87 1011.0
20260502034529 48 0 0.0 0.0 0.00 0.00 0.00 87 1010.9
20260502034011 48 0 0.0 0.0 0.00 0.00 0.00 87 1011.0
20260502033510 48 0 0.0 0.0 0.00 0.00 0.00 87 1010.9
20260502033028 48 0 0.0 0.0 0.00 0.00 0.00 87 1010.9
20260502032511 48 0 0.0 0.0 0.00 0.00 0.00 87 1011.0
20260502032015 48 0 0.0 0.0 0.00 0.00 0.00 88 1011.1
20260502031534 48 0 0.0 0.0 0.00 0.00 0.00 88 1011.1
20260502031012 48 0 0.0 0.0 0.00 0.00 0.00 88 1011.0
20260502030515 48 0 0.0 0.0 0.00 0.00 0.00 88 1011.0
20260502030030 48 0 0.0 0.0 0.00 0.00 0.00 88 1011.1
20260502025511 48 0 0.0 0.0 0.00 0.00 0.00 88 1011.1
20260502025014 48 0 0.0 0.0 0.00 0.00 0.00 88 1011.2
20260502024532 48 0 0.0 0.0 0.00 0.00 0.00 88 1011.2
20260502024015 48 0 0.0 0.0 0.00 0.00 0.00 87 1011.2
20260502023511 48 0 0.0 0.0 0.00 0.00 0.00 87 1011.2
20260502023030 48 0 0.0 0.0 0.00 0.00 0.00 87 1011.1
20260502022511 48 0 0.0 0.0 0.00 0.00 0.00 87 1011.3
20260502022011 48 0 0.0 0.0 0.00 0.00 0.00 86 1011.1
20260502021530 48 0 0.0 0.0 0.00 0.00 0.00 86 1011.0
20260502021016 47 0 0.0 0.0 0.00 0.00 0.00 86 1011.1
20260502020513 47 0 0.0 0.0 0.00 0.00 0.00 86 1011.1
20260502020032 47 0 0.0 0.0 0.00 0.00 0.00 86 1011.1
20260502015513 47 0 0.0 0.0 0.00 0.00 0.00 85 1011.1
20260502015015 47 0 0.0 0.0 0.00 0.00 0.00 85 1011.0
20260502014533 48 0 0.0 0.0 0.00 0.00 0.00 84 1010.9
20260502014012 48 0 0.0 0.0 0.00 0.00 0.00 83 1010.8
20260502013512 48 0 0.0 0.0 0.00 0.00 0.00 83 1010.8
20260502013030 48 0 0.0 0.0 0.00 0.00 0.00 84 1010.7
20260502012515 48 0 0.0 0.0 0.00 0.00 0.00 83 1010.7
20260502012012 48 0 0.0 0.0 0.00 0.00 0.00 82 1010.8
20260502011532 48 0 0.0 0.0 0.00 0.00 0.00 81 1010.8
20260502011011 49 0 0.0 0.0 0.00 0.00 0.00 80 1010.8
20260502010514 49 0 0.0 0.0 0.00 0.00 0.00 79 1010.7
20260502010030 49 0 0.0 0.0 0.00 0.00 0.00 78 1010.6
20260502005517 50 0 0.0 0.0 0.00 0.00 0.00 78 1010.7
20260502005017 50 0 0.0 0.0 0.00 0.00 0.00 78 1010.7
20260502004530 50 0 0.0 0.0 0.00 0.00 0.00 76 1010.7
20260502004012 51 0 0.0 0.0 0.00 0.00 0.00 76 1010.8
20260502003511 51 0 0.0 0.0 0.00 0.00 0.00 77 1010.9
20260502003031 52 0 0.0 0.0 0.00 0.00 0.00 77 1010.9
20260502002512 52 0 0.0 0.0 0.00 0.00 0.00 76 1010.7
20260502002014 53 0 0.0 0.0 0.00 0.00 0.00 76 1010.7
20260502001528 53 0 0.0 0.0 0.00 0.00 0.00 75 1010.6
20260502001011 53 0 0.0 0.0 0.00 0.00 0.00 76 1010.5
20260502000513 54 0 0.0 1.0 0.00 0.00 0.00 73 1010.5
20260502000034 54 0 0.0 1.0 0.00 0.00 0.00 71 1010.4
20260501235513 54 0 0.0 1.0 0.00 0.00 0.00 73 1010.3
20260501235012 54 0 0.0 1.0 0.00 0.00 0.00 71 1010.4
20260501234531 54 0 0.0 0.0 0.00 0.00 0.00 70 1010.3
20260501234014 55 0 0.0 1.0 0.00 0.00 0.00 69 1010.3
20260501233513 55 0 0.0 1.0 0.00 0.00 0.00 70 1010.1
20260501233032 55 0 0.0 3.0 0.00 0.00 0.00 72 1010.1
20260501232518 55 0 0.0 3.0 0.00 0.00 0.00 71 1010.2
20260501232017 55 0 0.0 0.0 0.00 0.00 0.00 73 1010.1
20260501231529 56 0 0.0 0.0 0.00 0.00 0.00 72 1010.1
20260501231012 56 0 0.0 0.0 0.00 0.00 0.00 68 1010.1
20260501230514 56 0 0.0 0.0 0.00 0.00 0.00 67 1010.1
20260501230030 56 0 0.0 1.0 0.00 0.00 0.00 67 1010.0
20260501225511 56 0 0.0 2.0 0.00 0.00 0.00 66 1009.8
20260501225014 57 0 0.0 2.0 0.00 0.00 0.00 64 1009.7
20260501224532 57 0 0.0 1.0 0.00 0.00 0.00 60 1009.7
20260501224011 57 0 0.0 3.0 0.00 0.00 0.00 60 1009.5
20260501223513 57 0 0.0 3.0 0.00 0.00 0.00 57 1009.6
20260501223033 58 304 0.0 8.0 0.00 0.00 0.00 59 1009.6
20260501222517 58 311 2.0 10.0 0.00 0.00 0.00 55 1009.5
20260501222013 59 327 3.0 10.0 0.00 0.00 0.00 52 1009.6
20260501221533 60 290 0.0 3.0 0.00 0.00 0.00 51 1009.5
20260501221014 60 0 0.0 4.0 0.00 0.00 0.00 49 1009.5
20260501220513 60 290 0.0 4.0 0.00 0.00 0.00 46 1009.4
20260501220031 60 0 0.0 2.0 0.00 0.00 0.00 48 1009.4
20260501215514 60 0 0.0 2.0 0.00 0.00 0.00 48 1009.3
20260501215012 60 0 0.0 2.0 0.00 0.00 0.00 47 1009.2
20260501214531 60 0 0.0 4.0 0.00 0.00 0.00 50 1009.2
20260501214014 61 0 0.0 4.0 0.00 0.00 0.00 47 1009.3
20260501213513 61 289 0.0 3.0 0.00 0.00 0.00 48 1009.2
20260501213028 61 0 0.0 3.0 0.00 0.00 0.00 51 1009.0
20260501212512 61 0 0.0 4.0 0.00 0.00 0.00 46 1009.0
20260501212011 61 0 1.0 4.0 0.00 0.00 0.00 45 1009.2
20260501211537 62 0 0.0 6.0 0.00 0.00 0.00 44 1009.2
20260501211012 62 261 1.0 6.0 0.00 0.00 0.00 48 1009.2
20260501210513 62 0 0.0 5.0 0.00 0.00 0.00 47 1009.1
20260501210031 62 0 0.0 5.0 0.00 0.00 0.00 44 1009.1
20260501205513 62 0 0.0 2.0 0.00 0.00 0.00 44 1009.1
20260501205015 62 0 0.0 4.0 0.00 0.00 0.00 47 1009.1
20260501204552 63 290 0.0 4.0 0.00 0.00 0.00 43 1009.2
20260501204011 64 261 1.0 4.0 0.00 0.00 0.00 41 1009.2
20260501203511 65 240 1.0 5.0 0.00 0.00 0.00 42 1009.1
20260501203028 65 213 0.0 5.0 0.00 0.00 0.00 43 1009.2
20260501202512 64 0 0.0 5.0 0.00 0.00 0.00 43 1009.1
20260501202012 64 314 1.0 5.0 0.00 0.00 0.00 40 1009.1
20260501201530 64 0 0.0 9.0 0.00 0.00 0.00 42 1009.3
20260501201011 64 266 0.0 9.0 0.00 0.00 0.00 46 1009.3
20260501200511 64 0 2.0 9.0 0.00 0.00 0.00 45 1009.4
20260501200030 64 0 0.0 6.0 0.00 0.00 0.00 46 1009.4
20260501195514 63 0 0.0 6.0 0.00 0.00 0.00 45 1009.3
20260501195012 62 0 1.0 6.0 0.00 0.00 0.00 40 1009.2
20260501194530 62 172 1.0 5.0 0.00 0.00 0.00 42 1009.4
20260501194013 62 0 2.0 9.0 0.00 0.00 0.00 42 1009.4
20260501193511 62 0 0.0 9.0 0.00 0.00 0.00 44 1009.5
20260501193031 63 333 2.0 9.0 0.00 0.00 0.00 40 1009.5
20260501192511 63 338 2.0 6.0 0.00 0.00 0.00 41 1009.5
20260501192012 63 311 2.0 6.0 0.00 0.00 0.00 44 1009.5
20260501191531 63 323 1.0 8.0 0.00 0.00 0.00 42 1009.7
20260501191012 63 312 2.0 8.0 0.00 0.00 0.00 44 1009.7
20260501190516 62 236 1.0 6.0 0.00 0.00 0.00 42 1009.7
20260501190028 63 0 0.0 4.0 0.00 0.00 0.00 43 1009.8
20260501185514 62 0 1.0 7.0 0.00 0.00 0.00 45 1009.8
20260501185016 62 199 1.0 7.0 0.00 0.00 0.00 45 1009.7
20260501184528 62 307 1.0 5.0 0.00 0.00 0.00 44 1009.9
20260501184010 62 188 1.0 5.0 0.00 0.00 0.00 45 1010.0
20260501183511 62 239 1.0 4.0 0.00 0.00 0.00 46 1010.1
20260501183032 61 0 1.0 11.0 0.00 0.00 0.00 48 1010.1
20260501182512 61 313 4.0 11.0 0.00 0.00 0.00 42 1010.3
20260501182011 61 309 3.0 8.0 0.00 0.00 0.00 45 1010.3
20260501181531 61 279 1.0 11.0 0.00 0.00 0.00 47 1010.4
20260501181017 61 211 2.0 11.0 0.00 0.00 0.00 49 1010.4
20260501180511 60 319 3.0 8.0 0.00 0.00 0.00 52 1010.5
20260501180033 60 308 2.0 8.0 0.00 0.00 0.00 50 1010.5